{"data":{"norad_id":66764,"intl_designator":"2025-276DC","name":"NAHLA","alt_names":[],"object_type":"PAYLOAD","status":"ACTIVE","operator":null,"country":"BEL","launch_date":"2025-11-28","launch_site_code":"AFWTR","launch_vehicle":null,"mission":null,"orbit_class":"UNKNOWN","rcs_meters":null,"size_class":null,"mass_kg":null,"dimensions":null,"purposes":[],"wikipedia_slug":null,"has_3d_model":false,"image_url":null,"decayed_at":null,"tle_current":{"epoch":"2026-05-25T04:26:57.340032Z","epoch_age_seconds":55082,"freshness":"FRESH","line1":"1 66764U 25276DC  26145.18538588  .00002359  00000+0  11675-3 0  9996","line2":"2 66764  97.4204 219.0505 0004223  69.5264 290.6423 15.18755746 26926","mean_motion":15.18755746,"eccentricity":0.0004223,"inclination_deg":97.4204,"raan_deg":219.0505,"arg_perigee_deg":69.5264,"mean_anomaly_deg":290.6423,"bstar":0.00011675,"rev_number":2692,"period_min":94.814456096221,"perigee_km":506.69124870143,"apogee_km":512.50863132096,"semimajor_km":6887.7369400112,"source":"CELESTRAK","updated_at":"2026-05-25T13:38:06.455547Z"}}}